CPA126 NZCH-VHHH

Flight info

Callsign CPA126
Flight time N/A
Altitude 32000
Route KABKA L503 SAVER DCT IDRAS Q47 ITIDE Q295 GUDSO Q67 OVRON/N0496F340 Q67 UPOLO DCT MEMOS B473 SAMGE/N0487F360 B473 LUMVI W7 IOO W3 AKOTA A583 SABNO V542 BETTY
Aircraft B77W/H-SDE1E2E3FGHIJ2J3J4J5M1RWXY/LB1D1

Departure

Time 2026-04-30 21:44
Airport Christchurch International Airport (NZCH)

Arrival

Time N/A
Airport Hong Kong International Airport (VHHH)
Time Latitude Longitude Altitude Speed Heading
2026-04-30 21:20 -43.48681 172.53923 112 ft 0 kts 157°
2026-04-30 21:35 -43.48675 172.53919 113 ft 2 kts 157°
2026-04-30 21:35 -43.48664 172.53913 112 ft 2 kts 157°
2026-04-30 21:35 -43.48652 172.53906 111 ft 2 kts 157°
2026-04-30 21:35 -43.48641 172.53899 112 ft 2 kts 157°
2026-04-30 21:36 -43.48629 172.53892 112 ft 2 kts 157°
2026-04-30 21:36 -43.48618 172.53886 111 ft 2 kts 157°
2026-04-30 21:37 -43.48600 172.53876 114 ft 0 kts 215°
2026-04-30 21:39 -43.48617 172.53860 112 ft 9 kts 214°
2026-04-30 21:39 -43.48701 172.53774 113 ft 19 kts 220°
2026-04-30 21:39 -43.48805 172.53655 114 ft 19 kts 217°
2026-04-30 21:40 -43.48907 172.53533 115 ft 19 kts 220°
2026-04-30 21:40 -43.49012 172.53419 112 ft 19 kts 218°
2026-04-30 21:40 -43.49115 172.53299 112 ft 19 kts 220°
2026-04-30 21:40 -43.49218 172.53178 113 ft 19 kts 220°
2026-04-30 21:41 -43.49323 172.53060 117 ft 19 kts 219°
2026-04-30 21:41 -43.49427 172.52942 119 ft 19 kts 220°
2026-04-30 21:41 -43.49530 172.52822 121 ft 19 kts 220°
2026-04-30 21:41 -43.49633 172.52704 120 ft 19 kts 220°
2026-04-30 21:42 -43.49736 172.52585 120 ft 19 kts 220°
2026-04-30 21:42 -43.49797 172.52439 120 ft 18 kts 272°
2026-04-30 21:42 -43.49784 172.52276 119 ft 16 kts 287°
2026-04-30 21:42 -43.49722 172.52250 115 ft 10 kts 45°
2026-04-30 21:43 -43.49703 172.52275 116 ft 3 kts 41°
2026-04-30 21:43 -43.49507 172.52502 117 ft 76 kts 39°
2026-04-30 21:43 -43.48905 172.53193 113 ft 148 kts 39°
2026-04-30 21:43 -43.47969 172.54272 182 ft 193 kts 40°
2026-04-30 21:44 -43.46958 172.55456 835 ft 191 kts 38°
2026-04-30 21:44 -43.45767 172.56335 1337 ft 199 kts 21°
2026-04-30 21:44 -43.44503 172.57099 1877 ft 206 kts 24°
2026-04-30 21:44 -43.43132 172.57949 2043 ft 224 kts 22°
2026-04-30 21:45 -43.41638 172.58826 2375 ft 239 kts 22°
2026-04-30 21:45 -43.40083 172.59764 2837 ft 249 kts 23°
2026-04-30 21:45 -43.38471 172.60767 3313 ft 258 kts 23°
2026-04-30 21:45 -43.36732 172.61402 3724 ft 263 kts 356°
2026-04-30 21:46 -43.34985 172.60721 4309 ft 263 kts 326°
2026-04-30 21:46 -43.33708 172.58954 4973 ft 263 kts 300°
2026-04-30 21:46 -43.32992 172.56639 5482 ft 267 kts 290°
2026-04-30 21:46 -43.32399 172.54233 6044 ft 270 kts 289°
2026-04-30 21:47 -43.31799 172.51752 6765 ft 271 kts 289°
2026-04-30 21:47 -43.31229 172.49318 7389 ft 272 kts 289°
2026-04-30 21:47 -43.30641 172.46835 7986 ft 274 kts 289°
2026-04-30 21:47 -43.30032 172.44336 8590 ft 275 kts 290°
2026-04-30 21:48 -43.29406 172.41839 9204 ft 277 kts 290°
2026-04-30 21:48 -43.28768 172.39332 9788 ft 279 kts 290°
2026-04-30 21:48 -43.28120 172.36803 10347 ft 284 kts 290°
2026-04-30 21:48 -43.27433 172.34211 10499 ft 300 kts 295°
2026-04-30 21:49 -43.26301 172.31727 10646 ft 316 kts 308°
2026-04-30 21:49 -43.24893 172.29289 10794 ft 335 kts 308°
2026-04-30 21:49 -43.23393 172.26718 10989 ft 353 kts 308°
2026-04-30 21:49 -43.21835 172.24035 11433 ft 363 kts 308°
2026-04-30 21:50 -43.20256 172.21297 12011 ft 369 kts 308°
2026-04-30 21:50 -43.18663 172.18516 12713 ft 372 kts 307°
2026-04-30 21:50 -43.17064 172.15713 13497 ft 375 kts 307°
2026-04-30 21:50 -43.15451 172.12879 14220 ft 379 kts 307°
2026-04-30 21:51 -43.13817 172.10005 14851 ft 384 kts 307°
2026-04-30 21:51 -43.12180 172.07128 15489 ft 388 kts 307°
2026-04-30 21:51 -43.10514 172.04200 16170 ft 391 kts 307°
2026-04-30 21:51 -43.08829 172.01242 16794 ft 396 kts 307°
2026-04-30 21:52 -43.07148 171.98292 17392 ft 400 kts 307°
2026-04-30 21:52 -43.05425 171.95273 18042 ft 404 kts 307°
2026-04-30 21:52 -43.03689 171.92233 18700 ft 407 kts 307°
2026-04-30 21:52 -43.01936 171.89168 19284 ft 411 kts 307°
2026-04-30 21:53 -43.00167 171.86078 19844 ft 414 kts 307°
2026-04-30 21:53 -42.98406 171.83005 20385 ft 418 kts 307°
2026-04-30 21:53 -42.96607 171.79869 20941 ft 421 kts 307°
2026-04-30 21:53 -42.94791 171.76706 21466 ft 425 kts 307°
2026-04-30 21:54 -42.92952 171.73505 22003 ft 428 kts 307°
2026-04-30 21:54 -42.91103 171.70290 22519 ft 432 kts 307°
2026-04-30 21:54 -42.89238 171.67052 23018 ft 435 kts 307°
2026-04-30 21:54 -42.87379 171.63832 23519 ft 439 kts 307°
2026-04-30 21:55 -42.85379 171.60664 23971 ft 444 kts 312°
2026-04-30 21:55 -42.83204 171.57629 24410 ft 447 kts 314°
2026-04-30 21:55 -42.80960 171.54654 24829 ft 451 kts 315°
2026-04-30 21:55 -42.78695 171.51686 25234 ft 454 kts 315°
2026-04-30 21:56 -42.76446 171.48720 25616 ft 457 kts 315°
2026-04-30 21:56 -42.74167 171.45684 25988 ft 460 kts 314°
2026-04-30 21:56 -42.71882 171.42610 26348 ft 464 kts 314°
2026-04-30 21:56 -42.69586 171.39503 26715 ft 467 kts 314°
2026-04-30 21:57 -42.67277 171.36370 27091 ft 469 kts 314°
2026-04-30 21:57 -42.64959 171.33222 27461 ft 472 kts 314°
2026-04-30 21:57 -42.62625 171.30054 27809 ft 475 kts 314°
2026-04-30 21:57 -42.60301 171.26904 28131 ft 478 kts 314°
2026-04-30 21:58 -42.57934 171.23701 28431 ft 482 kts 314°
2026-04-30 21:58 -42.55548 171.20476 28726 ft 485 kts 314°
2026-04-30 21:58 -42.53147 171.17238 29046 ft 487 kts 314°
2026-04-30 21:58 -42.50738 171.13991 29352 ft 490 kts 314°
2026-04-30 21:59 -42.48309 171.10722 29636 ft 492 kts 314°
2026-04-30 21:59 -42.45873 171.07447 29941 ft 494 kts 314°
2026-04-30 21:59 -42.43431 171.04169 30336 ft 494 kts 314°
2026-04-30 22:00 -42.38606 170.97701 31082 ft 492 kts 314°
2026-04-30 22:00 -42.33759 170.91218 31718 ft 491 kts 314°
2026-04-30 22:00 -42.31327 170.87971 32004 ft 491 kts 314°
2026-04-30 22:01 -42.28893 170.84725 32280 ft 492 kts 314°
2026-04-30 22:01 -42.26457 170.81479 32573 ft 491 kts 314°
2026-04-30 22:01 -42.21558 170.74964 32656 ft 493 kts 315°
2026-04-30 22:02 -42.16727 170.68555 32655 ft 487 kts 315°
2026-04-30 22:02 -42.11876 170.62132 32660 ft 487 kts 315°
2026-04-30 22:03 -42.07068 170.55782 32663 ft 487 kts 315°
2026-04-30 22:03 -42.02215 170.49386 32653 ft 489 kts 315°
2026-04-30 22:04 -41.97345 170.42982 32673 ft 490 kts 315°
2026-04-30 22:05 -41.90038 170.33400 32661 ft 491 kts 315°
2026-04-30 22:05 -41.85935 170.28035 32657 ft 490 kts 315°
2026-04-30 22:06 -41.80246 170.20610 32656 ft 490 kts 315°
2026-04-30 22:06 -41.73756 170.12161 32655 ft 489 kts 315°
2026-04-30 22:07 -41.68907 170.05750 32656 ft 488 kts 313°
2026-04-30 22:07 -41.64325 169.99149 32653 ft 488 kts 311°
2026-04-30 22:08 -41.59765 169.92476 32656 ft 488 kts 312°
2026-04-30 22:08 -41.55145 169.85800 32655 ft 489 kts 312°
2026-04-30 22:09 -41.50497 169.79156 32660 ft 488 kts 312°
2026-04-30 22:09 -41.45864 169.72566 32645 ft 489 kts 313°
2026-04-30 22:10 -41.41197 169.65941 32650 ft 489 kts 313°
2026-04-30 22:10 -41.36535 169.59336 32654 ft 489 kts 313°
2026-04-30 22:11 -41.29552 169.49466 32655 ft 490 kts 313°
2026-04-30 22:12 -41.24866 169.42860 32654 ft 489 kts 313°
2026-04-30 22:12 -41.20214 169.36318 32647 ft 490 kts 313°
2026-04-30 22:13 -41.15522 169.29734 32655 ft 490 kts 313°
2026-04-30 22:13 -41.10828 169.23163 32653 ft 490 kts 313°
2026-04-30 22:14 -41.06162 169.16644 32649 ft 490 kts 313°
2026-04-30 22:14 -41.01455 169.10083 32651 ft 490 kts 313°
2026-04-30 22:15 -40.96750 169.03540 32650 ft 490 kts 313°
2026-04-30 22:15 -40.92119 168.97114 32645 ft 490 kts 313°
2026-04-30 22:16 -40.87405 168.90587 32641 ft 490 kts 313°
2026-04-30 22:17 -40.78010 168.77620 32646 ft 489 kts 313°
2026-04-30 22:17 -40.70924 168.67876 32637 ft 490 kts 313°
2026-04-30 22:18 -40.63840 168.58170 32649 ft 490 kts 313°
2026-04-30 22:19 -40.56753 168.48489 32638 ft 491 kts 313°
2026-04-30 22:20 -40.49656 168.38827 32643 ft 491 kts 313°
2026-04-30 22:20 -40.42524 168.29148 32636 ft 491 kts 313°
2026-04-30 22:21 -40.37768 168.22711 32645 ft 491 kts 314°
2026-04-30 22:21 -40.33037 168.16323 32639 ft 490 kts 314°
2026-04-30 22:22 -40.28270 168.09900 32636 ft 490 kts 314°
2026-04-30 22:22 -40.23506 168.03493 32636 ft 490 kts 314°
2026-04-30 22:23 -40.18802 167.97182 32636 ft 489 kts 314°
2026-04-30 22:23 -40.14037 167.90802 32640 ft 489 kts 314°
2026-04-30 22:24 -40.09300 167.84473 32628 ft 489 kts 314°
2026-04-30 22:24 -40.04524 167.78105 32635 ft 489 kts 314°
2026-04-30 22:25 -39.99783 167.71798 32630 ft 489 kts 314°
2026-04-30 22:25 -39.95012 167.65463 32631 ft 489 kts 314°
2026-04-30 22:26 -39.87868 167.56004 32627 ft 489 kts 314°
2026-04-30 22:27 -39.83079 167.49680 32626 ft 490 kts 314°
2026-04-30 22:27 -39.75908 167.40235 32631 ft 490 kts 314°
2026-04-30 22:28 -39.68709 167.30782 32617 ft 490 kts 314°
2026-04-30 22:29 -39.59132 167.18254 32629 ft 490 kts 314°
2026-04-30 22:31 -39.42361 166.96439 32624 ft 489 kts 314°
2026-04-30 22:32 -39.30344 166.80905 32616 ft 489 kts 314°
2026-04-30 22:33 -39.18289 166.65401 32621 ft 489 kts 314°
2026-04-30 22:35 -39.06274 166.50028 32612 ft 488 kts 314°
2026-04-30 22:36 -38.94229 166.34695 32620 ft 488 kts 314°
2026-04-30 22:37 -38.84552 166.22432 32617 ft 487 kts 314°
2026-04-30 22:38 -38.74907 166.10259 32611 ft 487 kts 314°
2026-04-30 22:39 -38.67669 166.01156 32615 ft 487 kts 314°
2026-04-30 22:40 -38.53175 165.83009 32609 ft 487 kts 314°
2026-04-30 22:41 -38.41033 165.67889 32607 ft 488 kts 315°
2026-04-30 22:43 -38.26443 165.49820 32603 ft 489 kts 315°
2026-04-30 22:44 -38.16644 165.37743 32596 ft 489 kts 315°
2026-04-30 22:45 -38.01942 165.19715 32601 ft 490 kts 315°
2026-04-30 22:47 -37.87212 165.01757 32600 ft 490 kts 316°
2026-04-30 22:48 -37.77430 164.89890 32587 ft 489 kts 316°
2026-04-30 22:49 -37.62680 164.72082 32581 ft 489 kts 316°
2026-04-30 22:51 -37.47904 164.54344 32584 ft 491 kts 316°
2026-04-30 22:52 -37.40466 164.45454 32581 ft 491 kts 316°
2026-04-30 22:53 -37.30580 164.33678 32571 ft 491 kts 316°
2026-04-30 22:53 -37.23962 164.25820 32579 ft 491 kts 316°
2026-04-30 22:55 -37.11556 164.11142 32571 ft 491 kts 316°
2026-04-30 22:56 -37.01628 163.99446 32562 ft 490 kts 316°
2026-04-30 22:57 -36.89225 163.84895 32562 ft 490 kts 316°
2026-04-30 22:58 -36.79273 163.73270 32563 ft 489 kts 316°
2026-04-30 22:59 -36.64373 163.55944 32556 ft 487 kts 316°